Home   Weather   Makassar   Past weeks

Flag for Indonesia Past Weather in Makassar, South Sulawesi, Indonesia — Yesterday and Last 2 Weeks

Now
77 °F

Passing clouds.


Feels Like: 78 °F
Forecast: 81 / 87 °F
Wind: 2 mph from Northeast

Location: Ujung Pandang / Hasanuddin

Current Time: Dec 3, 2016 at 4:08:33 am

Latest Report: Dec 3, 2016 at 3:30 am


Visibility: 5 mi

Pressure: 29.77 "Hg

Humidity: 100%

Dew Point: 77 °F

Location of MakassarLocation

Past Weather in Makassar — Graph

°F

Makassar Temperature Yesterday

Maximum temperature yesterday: 90 °F (at 11:00 am)
Minimum temperature yesterday: 75 °F (at 4:00 am)
Average temperature yesterday: 81 °F

High & Low Weather Summary for the Past Weeks

 TemperatureHumidityPressure
High93 °F (Nov 20, 1:30 pm)100% (Nov 18, 2:00 am)29.89 "Hg (Nov 18, 2:00 am)
Low75 °F (Nov 18, 3:30 am)59% (Nov 20, 11:00 am)29.65 "Hg (Nov 24, 3:30 pm)
Average82 °F93%29.78 "Hg
* Reported Nov 18 2:00 am — Dec 3 2:30 am, Makassar, Weather by CustomWeather, © 2016

Note: Actual official high and low records may vary slightly from our data, if they occured in-between our weather recording intervals... More about our weather records

Advertising

Makassar Weather History for the Previous 24 Hours

Scroll right to see more
 ConditionsComfort  
Time TempWeatherWind HumidityBarometerVisibility
2:30 am
Sat, Dec 3
77 °FPassing clouds.1 mph100%29.77 "Hg5 mi
2:00 am77 °FPassing clouds.3 mph100%29.77 "Hg5 mi
1:30 am77 °FPassing clouds.3 mph100%29.77 "Hg5 mi
1:00 am77 °FPassing clouds.5 mph100%29.80 "Hg5 mi
12:30 am77 °FPassing clouds.5 mph100%29.80 "Hg5 mi
12:00 am77 °FPassing clouds.3 mph100%29.83 "Hg5 mi
11:30 pm
Fri, Dec 2
77 °FPassing clouds.2 mph100%29.83 "Hg5 mi
11:00 pm77 °FPassing clouds.3 mph100%29.86 "Hg5 mi
10:00 pm77 °FLight rain. Passing clouds.3 mph100%N/A4 mi
9:30 pm77 °FLight rain. Passing clouds.3 mph100%29.89 "Hg4 mi
9:00 pm77 °FLight rain. Passing clouds.3 mph100%N/A4 mi
8:30 pm77 °FLight rain. Passing clouds.3 mph100%N/A4 mi
8:00 pm77 °FLight rain. Passing clouds.6 mph100%29.86 "Hg4 mi
7:30 pm77 °FThunderstorms. Passing clouds.5 mph100%29.83 "Hg4 mi
7:00 pm75 °FPassing clouds.2 mph100%29.83 "Hg4 mi
6:30 pm77 °FLight rain. Passing clouds.8 mph100%29.83 "Hg2 mi
6:00 pm77 °FLight rain. Partly sunny.13 mph100%29.80 "Hg3 mi
5:30 pm79 °FLight rain. Partly sunny.16 mph100%29.80 "Hg4 mi
5:00 pm84 °FScattered showers. Partly sunny.5 mph94%29.77 "Hg5 mi
4:30 pm84 °FScattered clouds.6 mph89%29.77 "Hg6 mi
4:00 pm86 °FScattered clouds.14 mph79%29.77 "Hg6 mi
3:00 pm90 °FPassing clouds.10 mph75%29.77 "HgN/A
2:30 pm88 °FPassing clouds.10 mph75%29.77 "HgN/A
2:00 pm88 °FPassing clouds.12 mph79%29.77 "HgN/A
1:30 pm88 °FScattered clouds.12 mph79%29.77 "HgN/A
1:00 pm88 °FPassing clouds.10 mph79%29.80 "HgN/A
12:30 pm88 °FPassing clouds.9 mph75%29.80 "HgN/A
12:00 pm90 °FPassing clouds.10 mph67%29.83 "HgN/A
11:30 am90 °FPassing clouds.9 mph67%29.83 "HgN/A
11:00 am90 °FPassing clouds.8 mph67%29.83 "HgN/A
10:30 am88 °FPassing clouds.9 mph75%29.86 "HgN/A
10:00 am88 °FPassing clouds.7 mph70%29.86 "HgN/A
9:30 am88 °FPassing clouds.7 mph70%29.86 "HgN/A
9:00 am86 °FPassing clouds.6 mph70%29.86 "HgN/A
8:30 am84 °FPassing clouds.3 mph79%29.86 "HgN/A
8:00 am82 °FPassing clouds.3 mph84%29.86 "HgN/A
7:30 am81 °FPassing clouds.3 mph89%29.86 "HgN/A
7:00 am79 °FPassing clouds.2 mph94%29.86 "HgN/A
6:30 am77 °FPassing clouds.1 mph100%29.83 "HgN/A
6:00 am75 °FPassing clouds.1 mph100%29.83 "HgN/A
5:30 am75 °FPassing clouds.3 mph100%29.83 "Hg6 mi
5:00 am75 °FPassing clouds.2 mph100%29.80 "Hg5 mi
4:30 am75 °FPassing clouds.3 mph100%29.80 "Hg5 mi
4:00 am75 °FPassing clouds.3 mph100%29.80 "Hg5 mi
Weather by CustomWeather, © 2016

See weather overviewHow to use our weather pages